Weather History for Kahului, HI

Change the Weather History Date:

Wednesday, November 28, 2012

  Actual Average Record
Temperature  
Mean Temperature 70 °F 75 °F  
Max Temperature 82 °F 83 °F 88 °F (2007)
Min Temperature 57 °F 67 °F 21 °F (2007)
Degree Days  
Heating Degree Days 0 0  
Month to date heating degree days 0 0  
Since 1 July heating degree days 0 0  
Cooling Degree Days 5 10  
Month to date cooling degree days 289 311  
Year to date cooling degree days 3631 3687  
Growing Degree Days 20 (Base 50)    
Moisture  
Dew Point 59 °F    
Average Humidity 69    
Maximum Humidity 87    
Minimum Humidity 50    
Precipitation  
Precipitation T in 0.09 in 2.32 in (1968)
Month to date precipitation 0.23 2.00  
Year to date precipitation 4.94 14.28  
Snow  
Snow 0.00 in - - ()
Month to date snowfall 0.0  
Since 1 July snowfall 0.0  
Since 1 September snowfall 0.0  
Snow Depth 0.00 in    
Sea Level Pressure  
Sea Level Pressure 30.05 in    
Wind  
Wind Speed 7 mph (ENE)    
Max Wind Speed 20 mph    
Max Gust Speed 23 mph    
Visibility 10 miles    
Events      
T = Trace of Precipitation, MM = Missing Value Source: NWS Daily Summary

Daily Weather History Graph

Daily Weather History Graph

Search for Another Location

Airport:

Trip Planner

Search our weather history database for the weather conditions in past years. The results will help you decide how hot, cold, wet, or windy it might be!

Date:

Astronomy

Nov. 28, 2012 Rise Set
Actual Time 6:44 AM HST 5:43 PM HST
Civil Twilight 6:20 AM HST 6:07 PM HST
Nautical Twilight 5:53 AM HST 6:34 PM HST
Astronomical Twilight 5:26 AM HST 7:01 PM HST
Moon 6:07 PM HST 6:51 AM HST
Length of Visible Light 11h 46m
Length of Day
10h 58m
Full, 100% of the Moon is Illuminated
Nov 28
Full
Dec 6
Last Quarter
Dec 12
New
Dec 19
First Quarter
Dec 28
Full

Hourly Weather History & Observations

Time (HST) Temp. Heat Index Dew Point Humidity Pressure Visibility Wind Dir Wind Speed Gust Speed Precip Events Conditions
12:54 AM 70.0 °F - 60.1 °F 71% 30.09 in 10.0 mi NE 8.1 mph - N/A   Overcast
1:54 AM 66.0 °F - 57.9 °F 75% 30.08 in 10.0 mi Calm Calm - N/A   Clear
2:54 AM 69.1 °F - 59.0 °F 70% 30.05 in 10.0 mi NE 8.1 mph - N/A   Partly Cloudy
3:54 AM 66.0 °F - 59.0 °F 78% 30.05 in 10.0 mi NNE 3.5 mph - N/A   Clear
4:54 AM 69.1 °F - 62.1 °F 78% 30.04 in 10.0 mi NE 15.0 mph - N/A   Clear
5:54 AM 57.9 °F - 53.1 °F 84% 30.05 in 10.0 mi SSE 3.5 mph - N/A   Clear
5:55 AM 57.9 °F - 53.1 °F 84% 30.05 in 10.0 mi SSE 3.5 mph - N/A   Clear
6:54 AM 60.1 °F - 54.0 °F 80% 30.07 in 10.0 mi Variable 4.6 mph - 0.00 in   Clear
7:54 AM 66.9 °F - 55.0 °F 66% 30.09 in 10.0 mi WNW 4.6 mph - 0.00 in   Partly Cloudy
8:54 AM 72.0 °F - 55.9 °F 57% 30.10 in 10.0 mi SSE 4.6 mph - 0.00 in   Partly Cloudy
9:54 AM 77.0 °F - 57.9 °F 52% 30.09 in 10.0 mi Calm Calm - 0.00 in   Partly Cloudy
10:54 AM 80.1 °F 80.9 °F 60.1 °F 50% 30.07 in 10.0 mi NE 12.7 mph 19.6 mph 0.00 in   Partly Cloudy
11:54 AM 80.1 °F 81.2 °F 62.1 °F 54% 30.06 in 10.0 mi NNE 8.1 mph - N/A   Scattered Clouds
12:54 PM 81.0 °F 81.9 °F 62.1 °F 52% 30.03 in 10.0 mi NE 16.1 mph 20.7 mph N/A   Partly Cloudy
1:54 PM 81.0 °F 81.7 °F 61.0 °F 50% 30.00 in 10.0 mi NE 13.8 mph - N/A   Scattered Clouds
2:54 PM 81.0 °F 81.7 °F 61.0 °F 50% 29.99 in 10.0 mi NE 10.4 mph - N/A   Scattered Clouds
3:54 PM 80.1 °F 81.1 °F 61.0 °F 52% 29.98 in 10.0 mi NNE 10.4 mph - N/A   Scattered Clouds
4:54 PM 77.0 °F - 63.0 °F 62% 30.00 in 10.0 mi ENE 6.9 mph - N/A   Partly Cloudy
5:54 PM 73.0 °F - 63.0 °F 71% 30.01 in 10.0 mi NE 5.8 mph - N/A   Partly Cloudy
6:54 PM 71.1 °F - 62.1 °F 73% 30.03 in 10.0 mi NNE 5.8 mph - N/A   Clear
7:54 PM 66.9 °F - 62.1 °F 84% 30.05 in 10.0 mi ESE 6.9 mph - N/A   Clear
8:54 PM 66.9 °F - 61.0 °F 81% 30.06 in 10.0 mi Calm Calm - N/A   Clear
9:54 PM 66.0 °F - 61.0 °F 84% 30.07 in 10.0 mi SSE 5.8 mph - N/A   Clear
10:54 PM 64.0 °F - 59.0 °F 84% 30.08 in 10.0 mi SSE 5.8 mph - N/A   Clear
11:54 PM 63.0 °F - 57.9 °F 84% 30.07 in 10.0 mi SE 5.8 mph - N/A   Clear